"Period start","avg(HW err(1)/warn(2) (#))","avg(Visibility (m))","avg(Weather code (#))","avg(Precip intensity (mm/h))","min(HW err(1)/warn(2) (#))","max(HW err(1)/warn(2) (#))","std(HW err(1)/warn(2) (#))","med(HW err(1)/warn(2) (#))","min(Visibility (m))","max(Visibility (m))","std(Visibility (m))","med(Visibility (m))","min(Weather code (#))","max(Weather code (#))","std(Weather code (#))","med(Weather code (#))","min(Precip intensity (mm/h))","max(Precip intensity (mm/h))","std(Precip intensity (mm/h))","med(Precip intensity (mm/h))"
2017-06-11 00:00:00,0,40867,0,0.00,0,0,0,0,25541,50000,6817,41570,0,0,0,0,0.00,0.00,0.00,0.00
2017-06-11 00:10:00,0,44540,0,0.00,0,0,0,0,25319,50000,8245,49299,0,0,0,0,0.00,0.00,0.00,0.00
2017-06-11 00:20:00,0,47322,0,0.00,0,0,0,0,41033,50000,3156,48957,0,0,0,0,0.00,0.00,0.00,0.00
2017-06-11 00:30:00,0,48721,0,0.00,0,0,0,0,45844,50000,1767,50000,0,0,0,0,0.00,0.00,0.00,0.00
2017-06-11 00:40:00,0,44862,0,0.00,0,0,0,0,39937,50000,3851,45231,0,0,0,0,0.00,0.00,0.00,0.00
2017-06-11 00:50:00,0,46650,0,0.00,0,0,0,0,38517,50000,4758,49720,0,0,0,0,0.00,0.00,0.00,0.00
2017-06-11 01:00:00,0,46475,0,0.00,0,0,0,0,37271,50000,4216,48504,0,0,0,0,0.00,0.00,0.00,0.00
2017-06-11 01:10:00,0,43928,0,0.00,0,0,0,0,33037,50000,5406,45683,0,0,0,0,0.00,0.00,0.00,0.00
2017-06-11 01:20:00,0,46717,0,0.00,0,0,0,0,38691,50000,4056,48593,0,0,0,0,0.00,0.00,0.00,0.00
2017-06-11 01:30:00,0,45912,0,0.00,0,0,0,0,31222,50000,6193,50000,0,0,0,0,0.00,0.00,0.00,0.00
2017-06-11 01:40:00,0,45713,0,0.00,0,0,0,0,38879,50000,3492,45889,0,0,0,0,0.00,0.00,0.00,0.00
2017-06-11 01:50:00,0,49243,0,0.00,0,0,0,0,45851,50000,1380,50000,0,0,0,0,0.00,0.00,0.00,0.00
2017-06-11 02:00:00,0,49308,0,0.00,0,0,0,0,46117,50000,1396,50000,0,0,0,0,0.00,0.00,0.00,0.00
2017-06-11 02:10:00,0,45312,0,0.00,0,0,0,0,33229,50000,5141,46574,0,0,0,0,0.00,0.00,0.00,0.00
2017-06-11 02:20:00,0,46576,0,0.00,0,0,0,0,36325,50000,4287,48387,0,0,0,0,0.00,0.00,0.00,0.00
2017-06-11 02:30:00,0,47000,0,0.00,0,0,0,0,38330,50000,3929,49174,0,0,0,0,0.00,0.00,0.00,0.00
2017-06-11 02:40:00,0,46867,0,0.00,0,0,0,0,42179,50000,3076,47438,0,0,0,0,0.00,0.00,0.00,0.00
2017-06-11 02:50:00,0,47851,0,0.00,0,0,0,0,41647,50000,2936,49762,0,0,0,0,0.00,0.00,0.00,0.00
2017-06-11 03:00:00,0,45981,0,0.00,0,0,0,0,32455,50000,6345,50000,0,0,0,0,0.00,0.00,0.00,0.00
2017-06-11 03:10:00,0,47934,0,0.00,0,0,0,0,39064,50000,3494,49424,0,0,0,0,0.00,0.00,0.00,0.00
2017-06-11 03:20:00,0,44367,0,0.00,0,0,0,0,37045,50000,3714,44258,0,0,0,0,0.00,0.00,0.00,0.00
2017-06-11 03:30:00,0,43204,0,0.00,0,0,0,0,32319,50000,6217,42204,0,0,0,0,0.00,0.00,0.00,0.00
2017-06-11 03:40:00,0,47811,0,0.00,0,0,0,0,40845,50000,3255,50000,0,0,0,0,0.00,0.00,0.00,0.00
2017-06-11 03:50:00,0,40535,0,0.00,0,0,0,0,26032,50000,8218,42152,0,0,0,0,0.00,0.00,0.00,0.00
2017-06-11 04:00:00,0,43968,0,0.00,0,0,0,0,38427,50000,4556,43122,0,0,0,0,0.00,0.00,0.00,0.00
2017-06-11 04:10:00,0,43113,0,0.00,0,0,0,0,38143,48557,3583,43344,0,0,0,0,0.00,0.00,0.00,0.00
2017-06-11 04:20:00,0,42422,0,0.00,0,0,0,0,32152,50000,6574,43277,0,0,0,0,0.00,0.00,0.00,0.00
2017-06-11 04:30:00,0,44632,0,0.00,0,0,0,0,32093,50000,5492,45512,0,0,0,0,0.00,0.00,0.00,0.00
2017-06-11 04:40:00,0,43076,0,0.00,0,0,0,0,34244,49316,4238,43959,0,0,0,0,0.00,0.00,0.00,0.00
2017-06-11 04:50:00,0,45691,0,0.00,0,0,0,0,26233,50000,7210,48562,0,0,0,0,0.00,0.00,0.00,0.00
2017-06-11 05:00:00,0,41036,0,0.00,0,0,0,0,30745,50000,6290,41970,0,0,0,0,0.00,0.00,0.00,0.00
2017-06-11 05:10:00,0,42031,0,0.00,0,0,0,0,29411,50000,6913,43499,0,0,0,0,0.00,0.00,0.00,0.00
2017-06-11 05:20:00,0,46561,0,0.00,0,0,0,0,38161,50000,4186,49144,0,0,0,0,0.00,0.00,0.00,0.00
2017-06-11 05:30:00,0,42008,0,0.00,0,0,0,0,35989,50000,4766,41118,0,0,0,0,0.00,0.00,0.00,0.00
2017-06-11 05:40:00,0,44238,0,0.00,0,0,0,0,37337,50000,4173,44870,0,0,0,0,0.00,0.00,0.00,0.00
2017-06-11 05:50:00,0,48072,0,0.00,0,0,0,0,39134,50000,3346,50000,0,0,0,0,0.00,0.00,0.00,0.00
2017-06-11 06:00:00,0,44753,0,0.00,0,0,0,0,29178,50000,6725,47712,0,0,0,0,0.00,0.00,0.00,0.00
2017-06-11 06:10:00,0,42881,0,0.00,0,0,0,0,27049,50000,7129,43277,0,0,0,0,0.00,0.00,0.00,0.00
2017-06-11 06:20:00,0,47214,0,0.00,0,0,0,0,36456,50000,3732,48006,0,0,0,0,0.00,0.00,0.00,0.00
2017-06-11 06:30:00,0,48752,0,0.00,0,0,0,0,45055,50000,1885,50000,0,0,0,0,0.00,0.00,0.00,0.00
2017-06-11 06:40:00,0,46442,0,0.00,0,0,0,0,35820,50000,5094,50000,0,0,0,0,0.00,0.00,0.00,0.00
2017-06-11 06:50:00,0,42182,0,0.00,0,0,0,0,30325,50000,6657,43022,0,0,0,0,0.00,0.00,0.00,0.00
2017-06-11 07:00:00,0,41562,0,0.00,0,0,0,0,32744,49235,4223,42737,0,0,0,0,0.00,0.00,0.00,0.00
2017-06-11 07:10:00,0,43004,0,0.00,0,0,0,0,33243,50000,6212,43183,0,0,0,0,0.00,0.00,0.00,0.00
2017-06-11 07:20:00,0,39554,0,0.00,0,0,0,0,32859,50000,5431,37692,0,0,0,0,0.00,0.00,0.00,0.00
2017-06-11 07:30:00,0,44729,0,0.00,0,0,0,0,34804,50000,5134,47252,0,0,0,0,0.00,0.00,0.00,0.00
2017-06-11 07:40:00,0,48709,0,0.00,0,0,0,0,46522,50000,1404,49376,0,0,0,0,0.00,0.00,0.00,0.00
2017-06-11 07:50:00,0,47264,0,0.00,0,0,0,0,40429,50000,2901,47770,0,0,0,0,0.00,0.00,0.00,0.00
2017-06-11 08:00:00,0,41765,0,0.00,0,0,0,0,23629,49171,7557,44633,0,0,0,0,0.00,0.00,0.00,0.00
2017-06-11 08:10:00,0,48192,0,0.00,0,0,0,0,42310,50000,2638,50000,0,0,0,0,0.00,0.00,0.00,0.00
2017-06-11 08:20:00,0,47650,0,0.00,0,0,0,0,41645,50000,2965,49726,0,0,0,0,0.00,0.00,0.00,0.00
2017-06-11 08:30:00,0,48147,0,0.00,0,0,0,0,43372,50000,2536,49966,0,0,0,0,0.00,0.00,0.00,0.00
2017-06-11 08:40:00,0,46249,0,0.00,0,0,0,0,34693,50000,4039,47238,0,0,0,0,0.00,0.00,0.00,0.00
2017-06-11 08:50:00,0,45566,0,0.00,0,0,0,0,37372,50000,3747,45928,0,0,0,0,0.00,0.00,0.00,0.00
2017-06-11 09:00:00,0,43384,0,0.00,0,0,0,0,35893,50000,5220,44148,0,0,0,0,0.00,0.00,0.00,0.00
2017-06-11 09:10:00,0,48216,0,0.00,0,0,0,0,42427,50000,2549,49492,0,0,0,0,0.00,0.00,0.00,0.00
2017-06-11 09:20:00,0,43932,0,0.00,0,0,0,0,34846,50000,5092,43747,0,0,0,0,0.00,0.00,0.00,0.00
2017-06-11 09:30:00,0,47218,0,0.00,0,0,0,0,39033,50000,3837,49791,0,0,0,0,0.00,0.00,0.00,0.00
2017-06-11 09:40:00,0,45560,0,0.00,0,0,0,0,41264,50000,3016,45600,0,0,0,0,0.00,0.00,0.00,0.00
2017-06-11 09:50:00,0,47440,0,0.00,0,0,0,0,42938,50000,2569,48184,0,0,0,0,0.00,0.00,0.00,0.00
2017-06-11 10:00:00,0,48693,0,0.00,0,0,0,0,45044,50000,2020,50000,0,0,0,0,0.00,0.00,0.00,0.00
2017-06-11 10:10:00,0,44939,0,0.00,0,0,0,0,33602,50000,5908,48095,0,0,0,0,0.00,0.00,0.00,0.00
2017-06-11 10:20:00,0,44988,0,0.00,0,0,0,0,37096,50000,4699,45423,0,0,0,0,0.00,0.00,0.00,0.00
2017-06-11 10:30:00,0,46259,0,0.00,0,0,0,0,41175,50000,2608,46893,0,0,0,0,0.00,0.00,0.00,0.00
2017-06-11 10:40:00,0,46686,0,0.00,0,0,0,0,37155,50000,4229,48212,0,0,0,0,0.00,0.00,0.00,0.00
2017-06-11 10:50:00,0,44748,0,0.00,0,0,0,0,37288,50000,4215,45098,0,0,0,0,0.00,0.00,0.00,0.00
2017-06-11 11:00:00,0,49250,0,0.00,0,0,0,0,44133,50000,1736,50000,0,0,0,0,0.00,0.00,0.00,0.00
2017-06-11 11:10:00,0,46785,0,0.00,0,0,0,0,35339,50000,4222,48000,0,0,0,0,0.00,0.00,0.00,0.00
2017-06-11 11:20:00,0,46462,0,0.00,0,0,0,0,38392,50000,4529,48984,0,0,0,0,0.00,0.00,0.00,0.00
2017-06-11 11:30:00,0,47447,0,0.00,0,0,0,0,37786,50000,4187,49626,0,0,0,0,0.00,0.00,0.00,0.00
2017-06-11 11:40:00,0,45939,0,0.00,0,0,0,0,35234,50000,5048,48566,0,0,0,0,0.00,0.00,0.00,0.00
2017-06-11 11:50:00,0,42223,0,0.00,0,0,0,0,27629,50000,7915,45379,0,0,0,0,0.00,0.00,0.00,0.00
2017-06-11 12:00:00,0,47471,0,0.00,0,0,0,0,43813,50000,2651,48290,0,0,0,0,0.00,0.00,0.00,0.00
2017-06-11 12:10:00,0,47180,0,0.00,0,0,0,0,41085,50000,3296,48646,0,0,0,0,0.00,0.00,0.00,0.00
2017-06-11 12:20:00,0,50000,0,0.00,0,0,0,0,50000,50000,0,50000,0,0,0,0,0.00,0.00,0.00,0.00
2017-06-11 12:30:00,0,49505,0,0.00,0,0,0,0,47325,50000,994,50000,0,0,0,0,0.00,0.00,0.00,0.00
2017-06-11 12:40:00,0,50000,0,0.00,0,0,0,0,50000,50000,0,50000,0,0,0,0,0.00,0.00,0.00,0.00
2017-06-11 12:50:00,0,48247,0,0.00,0,0,0,0,41944,50000,2577,50000,0,0,0,0,0.00,0.00,0.00,0.00
2017-06-11 13:00:00,0,48925,0,0.00,0,0,0,0,41440,50000,2562,50000,0,0,0,0,0.00,0.00,0.00,0.00
2017-06-11 13:10:00,0,50000,0,0.00,0,0,0,0,50000,50000,0,50000,0,0,0,0,0.00,0.00,0.00,0.00
2017-06-11 13:20:00,0,49015,0,0.00,0,0,0,0,46016,50000,1410,50000,0,0,0,0,0.00,0.00,0.00,0.00
2017-06-11 13:30:00,0,50000,0,0.00,0,0,0,0,50000,50000,0,50000,0,0,0,0,0.00,0.00,0.00,0.00
2017-06-11 13:40:00,0,49993,0,0.00,0,0,0,0,49934,50000,20,50000,0,0,0,0,0.00,0.00,0.00,0.00
2017-06-11 13:50:00,0,49997,0,0.00,0,0,0,0,49966,50000,10,50000,0,0,0,0,0.00,0.00,0.00,0.00
2017-06-11 14:00:00,0,49824,0,0.00,0,0,0,0,48240,50000,528,50000,0,0,0,0,0.00,0.00,0.00,0.00
2017-06-11 14:10:00,0,49820,0,0.00,0,0,0,0,48196,50000,541,50000,0,0,0,0,0.00,0.00,0.00,0.00
2017-06-11 14:20:00,0,50000,0,0.00,0,0,0,0,50000,50000,0,50000,0,0,0,0,0.00,0.00,0.00,0.00
2017-06-11 14:30:00,0,49763,0,0.00,0,0,0,0,47627,50000,712,50000,0,0,0,0,0.00,0.00,0.00,0.00
2017-06-11 14:40:00,0,49865,0,0.00,0,0,0,0,48649,50000,405,50000,0,0,0,0,0.00,0.00,0.00,0.00
2017-06-11 14:50:00,0,49865,0,0.00,0,0,0,0,48654,50000,404,50000,0,0,0,0,0.00,0.00,0.00,0.00
2017-06-11 15:00:00,0,49973,0,0.00,0,0,0,0,49729,50000,81,50000,0,0,0,0,0.00,0.00,0.00,0.00
2017-06-11 15:10:00,0,50000,0,0.00,0,0,0,0,50000,50000,0,50000,0,0,0,0,0.00,0.00,0.00,0.00
2017-06-11 15:20:00,0,49484,0,0.00,0,0,0,0,47860,50000,742,50000,0,0,0,0,0.00,0.00,0.00,0.00
2017-06-11 15:30:00,0,49621,0,0.00,0,0,0,0,47158,50000,868,50000,0,0,0,0,0.00,0.00,0.00,0.00
2017-06-11 15:40:00,0,50000,0,0.00,0,0,0,0,50000,50000,0,50000,0,0,0,0,0.00,0.00,0.00,0.00
2017-06-11 15:50:00,0,49910,0,0.00,0,0,0,0,49098,50000,271,50000,0,0,0,0,0.00,0.00,0.00,0.00
2017-06-11 16:00:00,0,50000,0,0.00,0,0,0,0,50000,50000,0,50000,0,0,0,0,0.00,0.00,0.00,0.00
2017-06-11 16:10:00,0,49816,0,0.00,0,0,0,0,48159,50000,552,50000,0,0,0,0,0.00,0.00,0.00,0.00
2017-06-11 16:20:00,0,49176,0,0.00,0,0,0,0,44329,50000,1788,50000,0,0,0,0,0.00,0.00,0.00,0.00
2017-06-11 16:30:00,0,49988,0,0.00,0,0,0,0,49882,50000,35,50000,0,0,0,0,0.00,0.00,0.00,0.00
2017-06-11 16:40:00,0,49430,0,0.00,0,0,0,0,47543,50000,933,50000,0,0,0,0,0.00,0.00,0.00,0.00
2017-06-11 16:50:00,0,49182,0,0.00,0,0,0,0,44012,50000,1843,50000,0,0,0,0,0.00,0.00,0.00,0.00
2017-06-11 17:00:00,0,49944,0,0.00,0,0,0,0,49439,50000,168,50000,0,0,0,0,0.00,0.00,0.00,0.00
2017-06-11 17:10:00,0,50000,0,0.00,0,0,0,0,50000,50000,0,50000,0,0,0,0,0.00,0.00,0.00,0.00
2017-06-11 17:20:00,0,49785,0,0.00,0,0,0,0,48524,50000,466,50000,0,0,0,0,0.00,0.00,0.00,0.00
2017-06-11 17:30:00,0,50000,0,0.00,0,0,0,0,50000,50000,0,50000,0,0,0,0,0.00,0.00,0.00,0.00
2017-06-11 17:40:00,0,49125,0,0.00,0,0,0,0,45502,50000,1751,50000,0,0,0,0,0.00,0.00,0.00,0.00
2017-06-11 17:50:00,0,49631,0,0.00,0,0,0,0,47807,50000,684,50000,0,0,0,0,0.00,0.00,0.00,0.00
2017-06-11 18:00:00,0,49860,0,0.00,0,0,0,0,48625,50000,412,50000,0,0,0,0,0.00,0.00,0.00,0.00
2017-06-11 18:10:00,0,49644,0,0.00,0,0,0,0,48581,50000,572,50000,0,0,0,0,0.00,0.00,0.00,0.00
2017-06-11 18:20:00,0,49871,0,0.00,0,0,0,0,48708,50000,388,50000,0,0,0,0,0.00,0.00,0.00,0.00
2017-06-11 18:30:00,0,49130,0,0.00,0,0,0,0,45331,50000,1497,50000,0,0,0,0,0.00,0.00,0.00,0.00
2017-06-11 18:40:00,0,50000,0,0.00,0,0,0,0,50000,50000,0,50000,0,0,0,0,0.00,0.00,0.00,0.00
2017-06-11 18:50:00,0,49822,0,0.00,0,0,0,0,48218,50000,535,50000,0,0,0,0,0.00,0.00,0.00,0.00
2017-06-11 19:00:00,0,48641,0,0.00,0,0,0,0,45245,50000,1700,49504,0,0,0,0,0.00,0.00,0.00,0.00
2017-06-11 19:10:00,0,48579,0,0.00,0,0,0,0,42872,50000,2366,49895,0,0,0,0,0.00,0.00,0.00,0.00
2017-06-11 19:20:00,0,49898,0,0.00,0,0,0,0,49351,50000,213,50000,0,0,0,0,0.00,0.00,0.00,0.00
2017-06-11 19:30:00,0,49470,0,0.00,0,0,0,0,47074,50000,885,50000,0,0,0,0,0.00,0.00,0.00,0.00
2017-06-11 19:40:00,0,48844,0,0.00,0,0,0,0,45011,50000,1686,50000,0,0,0,0,0.00,0.00,0.00,0.00
2017-06-11 19:50:00,0,49751,0,0.00,0,0,0,0,47506,50000,748,50000,0,0,0,0,0.00,0.00,0.00,0.00
2017-06-11 20:00:00,0,50000,0,0.00,0,0,0,0,50000,50000,0,50000,0,0,0,0,0.00,0.00,0.00,0.00
2017-06-11 20:10:00,0,49597,0,0.00,0,0,0,0,47432,50000,790,50000,0,0,0,0,0.00,0.00,0.00,0.00
2017-06-11 20:20:00,0,45017,0,0.00,0,0,0,0,34342,50000,6051,48430,0,0,0,0,0.00,0.00,0.00,0.00
2017-06-11 20:30:00,0,47934,0,0.00,0,0,0,0,41940,50000,2698,49257,0,0,0,0,0.00,0.00,0.00,0.00
2017-06-11 20:40:00,0,47350,0,0.00,0,0,0,0,43336,50000,2149,47566,0,0,0,0,0.00,0.00,0.00,0.00
2017-06-11 20:50:00,0,49058,0,0.00,0,0,0,0,44463,50000,1746,50000,0,0,0,0,0.00,0.00,0.00,0.00
2017-06-11 21:00:00,0,43866,0,0.00,0,0,0,0,32175,50000,5554,44397,0,0,0,0,0.00,0.00,0.00,0.00
2017-06-11 21:10:00,0,49193,0,0.00,0,0,0,0,46199,50000,1241,49960,0,0,0,0,0.00,0.00,0.00,0.00
2017-06-11 21:20:00,0,48136,0,0.00,0,0,0,0,37151,50000,4045,50000,0,0,0,0,0.00,0.00,0.00,0.00
2017-06-11 21:30:00,0,45698,0,0.00,0,0,0,0,39028,50000,3729,45701,0,0,0,0,0.00,0.00,0.00,0.00
2017-06-11 21:40:00,0,47519,0,0.00,0,0,0,0,37801,50000,4226,50000,0,0,0,0,0.00,0.00,0.00,0.00
2017-06-11 21:50:00,0,44091,0,0.00,0,0,0,0,35407,50000,5008,45263,0,0,0,0,0.00,0.00,0.00,0.00
2017-06-11 22:00:00,0,42085,0,0.00,0,0,0,0,34433,49328,4815,42518,0,0,0,0,0.00,0.00,0.00,0.00
2017-06-11 22:10:00,0,41894,0,0.00,0,0,0,0,28274,50000,8336,43875,0,0,0,0,0.00,0.00,0.00,0.00
2017-06-11 22:20:00,0,45176,0,0.00,0,0,0,0,36345,50000,3877,45351,0,0,0,0,0.00,0.00,0.00,0.00
2017-06-11 22:30:00,0,45379,0,0.00,0,0,0,0,33224,50000,5472,47432,0,0,0,0,0.00,0.00,0.00,0.00
2017-06-11 22:40:00,0,41551,0,0.00,0,0,0,0,32554,50000,6722,40949,0,0,0,0,0.00,0.00,0.00,0.00
2017-06-11 22:50:00,0,40432,0,0.00,0,0,0,0,31669,50000,5274,40666,0,0,0,0,0.00,0.00,0.00,0.00
2017-06-11 23:00:00,0,46643,0,0.00,0,0,0,0,36566,50000,4278,48637,0,0,0,0,0.00,0.00,0.00,0.00
2017-06-11 23:10:00,0,42599,0,0.00,0,0,0,0,28874,50000,6442,44403,0,0,0,0,0.00,0.00,0.00,0.00
2017-06-11 23:20:00,0,39921,0,0.00,0,0,0,0,30087,50000,7537,39680,0,0,0,0,0.00,0.00,0.00,0.00
2017-06-11 23:30:00,0,41307,0,0.00,0,0,0,0,26295,49621,6025,42459,0,0,0,0,0.00,0.00,0.00,0.00
2017-06-11 23:40:00,0,44636,0,0.00,0,0,0,0,35009,50000,5286,45134,0,0,0,0,0.00,0.00,0.00,0.00
2017-06-11 23:50:00,0,36180,0,0.00,0,0,0,0,24389,50000,7092,35848,0,0,0,0,0.00,0.00,0.00,0.00
